FW7889 Weather Reports


time (UTC)temp
C
wind
direction
speed
KPH
gust
KPH
rain 1hr
cm
rain 24hr
cm
rain mn
cm
humidity
%
barometer
mb
20260905182230 19 314 1.6 3.2 0.00 0.00 0.00 86 1067.7
20260905181230 20 306 4.8 4.8 0.00 0.00 0.00 79 1067.7
20260905180226 20 348 8.0 9.7 0.00 0.00 0.00 78 1067.5
20260905175227 20 320 4.8 4.8 0.00 0.00 0.00 81 1067.8
20260905174223 20 339 4.8 8.0 0.00 0.00 0.00 80 1067.6
20260905173221 20 316 1.6 1.6 0.00 0.00 0.00 80 1067.5
20260905172220 20 293 1.6 1.6 0.00 0.00 0.00 81 1067.5
20260905171218 20 332 4.8 4.8 0.00 0.00 0.00 82 1067.5
20260905170215 20 292 1.6 1.6 0.00 0.00 0.00 80 1067.3
20260905165210 20 316 1.6 1.6 0.00 0.00 0.00 84 1067.3
20260905164210 20 316 3.2 3.2 0.00 0.00 0.00 83 1067.8
20260905163208 20 333 4.8 4.8 0.00 0.00 0.00 82 1067.7
20260905162204 20 306 1.6 1.6 0.00 0.00 0.00 78 1067.8
20260905161203 20 297 1.6 3.2 0.00 0.00 0.00 82 1067.8
20260905160201 20 336 1.6 1.6 0.00 0.00 0.00 78 1067.9
20260905155201 19 75 3.2 3.2 0.00 0.00 0.00 83 1067.9
20260905154156 18 324 4.8 4.8 0.00 0.00 0.00 84 1068.1
20260905153154 18 28 4.8 4.8 0.00 0.00 0.00 82 1068.1
20260905152149 18 92 3.2 3.2 0.00 0.00 0.00 83 1068.2
20260905151145 18 313 1.6 1.6 0.00 0.00 0.00 86 1068.2
20260905150144 17 327 8.0 9.7 0.00 0.00 0.00 87 1068.4
20260905145142 17 303 0.0 0.0 0.00 0.00 0.00 89 1068.3
20260905144142 18 328 6.4 8.0 0.00 0.00 0.00 89 1068.3
20260905143137 17 311 1.6 1.6 0.00 0.00 0.00 88 1068.3
20260905142136 17 342 3.2 4.8 0.00 0.00 0.00 91 1068.4
20260905141132 16 342 3.2 3.2 0.00 0.00 0.00 93 1068.5
20260905140132 16 304 0.0 1.6 0.00 0.00 0.00 95 1068.4
20260905135129 15 300 1.6 1.6 0.00 0.00 0.00 98 1068.4
20260905134128 15 305 0.0 1.6 0.00 0.00 0.00 99 1068.5
20260905133124 15 300 0.0 1.6 0.00 0.00 0.00 99 1068.4
20260905132124 14 291 0.0 0.0 0.00 0.00 0.00 99 1068.8
20260905131120 14 319 1.6 3.2 0.00 0.00 0.00 99 1068.7
20260905130120 14 299 0.0 0.0 0.00 0.00 0.00 99 1068.8
20260905125116 14 297 1.6 1.6 0.00 0.00 0.00 99 1068.8
20260905124114 14 291 0.0 0.0 0.00 0.00 0.00 99 1068.4
20260905123112 13 298 0.0 1.6 0.00 0.00 0.00 99 1068.3
20260905122112 13 282 0.0 0.0 0.00 0.00 0.00 99 1068.1
20260905121108 13 282 0.0 0.0 0.00 0.00 0.00 99 1068.4
20260905120108 13 293 0.0 0.0 0.00 0.00 0.00 99 1068.2
20260905115108 13 312 1.6 1.6 0.00 0.00 0.00 99 1068.1
20260905114106 13 282 1.6 1.6 0.00 0.00 0.00 99 1068.1
20260905113103 13 272 0.0 0.0 0.00 0.00 0.00 99 1067.7
20260905112059 13 283 0.0 0.0 0.00 0.00 0.00 99 1067.4
20260905111059 13 81 4.8 4.8 0.00 0.00 0.00 99 1067.5
20260905110059 13 289 1.6 1.6 0.00 0.00 0.00 99 1067.5
20260905105059 13 284 0.0 0.0 0.00 0.00 0.00 99 1067.2
20260905104054 13 284 0.0 0.0 0.00 0.00 0.00 99 1067.2
20260905103052 13 284 0.0 0.0 0.00 0.00 0.00 99 1067.3
20260905102050 13 280 0.0 0.0 0.00 0.00 0.00 99 1067.3
20260905101046 13 299 0.0 1.6 0.00 0.00 0.00 99 1067.2
20260905100043 13 284 0.0 0.0 0.00 0.00 0.00 99 1067.2
20260905095038 12 284 0.0 0.0 0.00 0.00 0.00 99 1067.1
20260905094038 12 286 0.0 0.0 0.00 0.00 0.00 99 1067.1
20260905093035 12 295 0.0 0.0 0.00 0.00 0.00 99 1067.2
20260905092031 12 298 0.0 1.6 0.00 0.00 0.00 99 1067.2
20260905091030 12 296 0.0 0.0 0.00 0.00 0.00 99 1067.2
20260905090026 12 301 1.6 1.6 0.00 0.00 0.00 99 1067.1
20260905085020 12 286 0.0 0.0 0.00 0.00 0.00 99 1067.2
20260905084020 12 287 0.0 0.0 0.00 0.00 0.00 99 1067.2
20260905083018 12 284 0.0 0.0 0.00 0.00 0.00 99 1067.2
20260905082015 12 284 0.0 0.0 0.00 0.00 0.00 99 1067.1
20260905081014 12 285 0.0 0.0 0.00 0.00 0.00 99 1067.1
20260905080009 12 285 0.0 0.0 0.00 0.00 0.00 99 1067.5
20260905075008 12 286 0.0 0.0 0.00 0.00 0.00 99 1067.4
20260905074005 12 286 0.0 0.0 0.00 0.00 0.00 99 1067.3
20260905073001 12 286 0.0 0.0 0.00 0.00 0.00 99 1067.1
20260905071957 12 289 0.0 0.0 0.00 0.00 0.00 99 1067.1
20260905070953 13 312 0.0 0.0 0.00 0.00 0.00 99 1067.3
20260905065949 12 284 0.0 0.0 0.00 0.00 0.00 99 1067.4
20260905064949 12 289 0.0 0.0 0.00 0.00 0.00 99 1067.4
20260905063944 12 287 0.0 0.0 0.00 0.00 0.00 99 1067.4
20260905062941 12 284 0.0 0.0 0.00 0.00 0.00 99 1067.5
20260905061936 12 284 0.0 0.0 0.00 0.00 0.00 99 1067.4
20260905060935 12 284 0.0 0.0 0.00 0.00 0.00 99 1067.2
20260905055931 13 284 0.0 0.0 0.00 0.00 0.00 99 1067.3
20260905054931 12 284 0.0 0.0 0.00 0.00 0.00 99 1067.5
20260905053926 13 287 0.0 0.0 0.00 0.00 0.00 99 1067.6
20260905052923 13 284 0.0 0.0 0.00 0.00 0.00 99 1067.4
20260905051922 13 284 0.0 0.0 0.00 0.00 0.00 99 1067.6
20260905050921 13 287 0.0 0.0 0.00 0.00 0.00 99 1067.6
20260905045918 13 289 0.0 0.0 0.00 0.00 0.00 99 1067.7
20260905044915 13 298 0.0 0.0 0.00 0.00 0.00 99 1067.6
20260905043914 14 289 0.0 0.0 0.00 0.00 0.00 99 1067.8
20260905042914 14 286 0.0 0.0 0.00 0.00 0.00 99 1067.9
20260905041910 15 293 0.0 0.0 0.00 0.00 0.00 99 1067.5
20260905040906 15 292 0.0 0.0 0.00 0.00 0.00 99 1067.7
20260905035905 15 284 0.0 0.0 0.00 0.00 0.00 99 1067.4
20260905034903 15 283 0.0 0.0 0.00 0.00 0.00 99 1067.5
20260905033903 16 284 0.0 0.0 0.00 0.00 0.00 99 1067.5
20260905032904 16 284 0.0 0.0 0.00 0.00 0.00 99 1067.3
20260905031900 16 284 0.0 0.0 0.00 0.00 0.00 99 1067.4
20260905030857 16 285 0.0 0.0 0.00 0.00 0.00 99 1067.7
20260905025858 16 284 0.0 0.0 0.00 0.00 0.00 99 1067.7
20260905024856 16 284 0.0 0.0 0.00 0.00 0.00 99 1067.8
20260905023851 16 284 0.0 0.0 0.00 0.00 0.00 99 1067.7
20260905022851 16 284 0.0 0.0 0.00 0.00 0.00 99 1068.0
20260905021847 16 285 0.0 0.0 0.00 0.00 0.00 99 1068.0
20260905020843 16 284 0.0 0.0 0.00 0.00 0.00 99 1067.8
20260905015843 16 284 0.0 0.0 0.00 0.00 0.00 99 1067.6
20260905014842 16 284 0.0 0.0 0.00 0.00 0.00 99 1067.9
20260905013838 16 287 0.0 0.0 0.00 0.00 0.00 99 1067.8
20260905012834 16 288 0.0 0.0 0.00 0.00 0.00 99 1067.9
20260905011833 16 295 0.0 0.0 0.00 0.00 0.00 99 1067.7
20260905010828 17 295 0.0 0.0 0.00 0.00 0.00 99 1067.9
20260905005825 17 289 0.0 1.6 0.00 0.00 0.00 99 1068.1
20260905004821 17 295 1.6 1.6 0.00 0.00 0.00 99 1068.1
20260905003817 17 295 0.0 1.6 0.00 0.00 0.00 99 1068.2
20260905002814 17 285 0.0 0.0 0.00 0.00 0.00 99 1067.7
20260905001809 17 285 1.6 1.6 0.00 0.00 0.00 99 1067.8
20260905000804 17 276 0.0 1.6 0.00 0.00 0.00 97 1067.7
20260904235800 17 280 0.0 0.0 0.00 0.00 0.00 94 1067.5
20260904234756 17 279 0.0 0.0 0.00 0.00 0.00 93 1067.3
20260904233753 18 283 0.0 0.0 0.00 0.00 0.00 93 1067.5
20260904232751 18 284 0.0 0.0 0.00 0.00 0.00 90 1067.4
20260904231748 18 286 0.0 0.0 0.00 0.00 0.00 88 1067.4
20260904230744 19 295 0.0 0.0 0.00 0.00 0.00 87 1067.3
20260904225743 19 295 0.0 0.0 0.00 0.00 0.00 87 1067.3
20260904224742 19 286 0.0 0.0 0.00 0.00 0.00 87 1067.0
20260904223737 19 292 0.0 0.0 0.00 0.00 0.00 87 1067.1
20260904222734 19 305 1.6 1.6 0.00 0.00 0.00 87 1067.1
20260904221735 19 301 1.6 1.6 0.00 0.00 0.00 86 1067.4
20260904220730 20 313 1.6 3.2 0.00 0.00 0.00 85 1067.1
20260904215731 20 326 3.2 3.2 0.00 0.00 0.00 84 1067.2
20260904214727 20 333 3.2 3.2 0.00 0.00 0.00 83 1067.2
20260904213727 20 300 3.2 3.2 0.00 0.00 0.00 81 1067.2
20260904212724 20 333 4.8 8.0 0.00 0.00 0.00 80 1067.3
20260904211725 20 299 1.6 1.6 0.00 0.00 0.00 81 1067.3
20260904210720 20 311 1.6 3.2 0.00 0.00 0.00 79 1067.2
20260904205717 20 355 4.8 4.8 0.00 0.00 0.00 77 1067.1
20260904204715 21 334 4.8 4.8 0.00 0.00 0.00 77 1067.3
20260904203713 21 285 3.2 4.8 0.00 0.00 0.00 77 1067.3
20260904202710 21 319 3.2 3.2 0.00 0.00 0.00 74 1067.3
20260904201707 21 326 3.2 3.2 0.00 0.00 0.00 75 1067.4
20260904200708 21 273 0.0 1.6 0.00 0.00 0.00 75 1067.5
20260904195707 21 331 3.2 3.2 0.00 0.00 0.00 73 1067.5
20260904194707 22 42 4.8 4.8 0.00 0.00 0.00 68 1067.5
20260904193703 22 318 3.2 3.2 0.00 0.00 0.00 70 1067.5
20260904192658 21 313 3.2 3.2 0.00 0.00 0.00 68 1067.5
20260904191656 21 323 4.8 4.8 0.00 0.00 0.00 69 1067.4
20260904190654 22 320 3.2 4.8 0.00 0.00 0.00 70 1067.2
20260904185653 21 299 1.6 3.2 0.00 0.00 0.00 73 1067.6
20260904184651 22 340 3.2 3.2 0.00 0.00 0.00 71 1067.5
20260904183649 22 316 4.8 8.0 0.00 0.00 0.00 66 1067.7